Tracking 25963 objects as of 13-Aug-2022
HD Live streaming from Space Station
objects crossing your sky now

ONEWEB-0041

Track ONEWEB-0041 now!
10-day predictions
ONEWEB-0041 is classified as:


NORAD ID: 45148
Int'l Code: 2020-008T
Perigee: 1,073.7 km
Apogee: 1,097.2 km
Inclination: 87.9 °
Period: 106.8 minutes
Semi major axis: 7456 km
RCS: Unknown
Launch date: February 6, 2020
Source: United Kingdom (UK)
Launch site: TYURATAM MISSILE AND SPACE COMPLEX (TTMTR)
aabbcc
Your satellite tracking list
Your tracking list is empty




NASA's NSSDC Master Catalog

Two Line Element Set (TLE):
1 45148U 20008T   22224.71127693  .00000059  00000-0  73507-4 0  9990
2 45148  87.9300 295.6077 0015757 299.1555  60.8017 13.48355588128775
Source of the keplerian elements: AFSPC